Location: Malmö
(55.6090°N, 13.0007°E)
Time: 00:52:31
(UTC+01:00)

ISS - Pass Details

Date: 29 January 2021
Orbit: 417 x 422 km, 51.6° (Epoch: 06 March)

Event Time Altitude Azimuth Distance (km) Brightness Sun altitude
Rises 19:37:14 0° 272° (W) 2,378 1.5 -25.2°
Reaches altitude 10° 19:39:31 10° 261° (W) 1,512 0.0 -25.6°
Enters shadow 19:41:20 22° 234° (SW) 966 -1.5 -25.8°
